sat.trackr.live / text

‹ back to catalog

2024-092J

NORAD 59781 · 2024-092J

PAYLOAD ACTIVE UNKNOWN

§ Identity

Operator
Country
CIS
Launch date
2024-05-16
Launch site
PLMSC
Launch vehicle
Mass (kg)
RCS (m²)

External: N2YO · Heavens-Above · Gunter

§ Orbital elements

Epoch: 2026-05-25T05:35:19.392576Z

Period
100.57 min
Inclination
98.6671°
Eccentricity
0.0010965
Mean motion
14.31837124 rev/d
Perigee alt
777.7 km
Apogee alt
793.5 km
Semi-major
7,163.7 km
B*
6.7777e-5
RAAN
264.2991°
Arg perigee
277.8818°
Mean anomaly
82.1120°
Rev number
10,561

§ Raw data

2024-092J1 59781U 24092J   26145.23286334  .00000137  00000+0  67777-4 0  99942 59781  98.6671 264.2991 0010965 277.8818  82.1120 14.31837124105615

JSON: /api/v1/satellites/59781 · /tle

For live sub-satellite position, see the globe view (requires WebGL).

§ Visibility from observer

Set your observer location to see the next 7 days of passes ≥ 10°. The values pass through the URL so the page stays shareable.

No JS? Fill the form by hand. The geolocation button needs JavaScript.